FW4202 Weather Reports


Display with metric or nautical units.
time (UTC)temp
F
wind
direction
speed
MPH
gust
MPH
rain 1hr
in
rain 24hr
in
rain mn
in
humidity
%
barometer
mb
20200330073555 67 115 0.0 0.0 0.00 0.00 0.00 90 1019.6
20200330073047 67 115 0.0 0.0 0.00 0.00 0.00 89 1019.6
20200330072555 68 115 0.0 0.0 0.00 0.00 0.00 89 1019.6
20200330072040 68 115 0.0 0.0 0.00 0.00 0.00 89 1019.6
20200330071638 68 115 0.0 0.0 0.00 0.00 0.00 88 1019.6
20200330071045 69 115 0.0 0.0 0.00 0.00 0.00 88 1019.6
20200330070543 69 115 0.0 1.0 0.00 0.00 0.00 88 1019.6
20200330070140 69 115 0.0 1.0 0.00 0.00 0.00 89 1019.6
20200330065538 69 115 0.0 1.0 0.00 0.00 0.00 89 1019.8
20200330065037 69 115 0.0 1.0 0.00 0.00 0.00 89 1019.8
20200330064550 69 115 0.0 0.0 0.00 0.00 0.00 88 1019.8
20200330063540 70 115 0.0 3.0 0.00 0.00 0.00 87 1019.8
20200330063138 70 115 0.0 3.0 0.00 0.00 0.00 87 1019.9
20200330062543 70 97 0.0 2.0 0.00 0.00 0.00 87 1020.0
20200330062039 70 116 0.0 2.0 0.00 0.00 0.00 88 1020.0
20200330061601 70 95 0.0 1.0 0.00 0.00 0.00 87 1019.9
20200330061036 70 95 0.0 1.0 0.00 0.00 0.00 87 1019.7
20200330060538 70 95 0.0 0.0 0.00 0.00 0.00 87 1019.9
20200330060107 70 94 0.0 1.0 0.00 0.00 0.00 86 1019.9
20200330055534 70 94 0.0 1.0 0.00 0.00 0.00 86 1019.8
20200330055031 70 115 0.0 1.0 0.00 0.00 0.00 86 1020.0
20200330054718 70 115 0.0 1.0 0.00 0.00 0.00 87 1020.0
20200330053538 70 115 0.0 2.0 0.00 0.00 0.00 86 1019.9
20200330053123 70 108 0.0 0.0 0.00 0.00 0.00 85 1019.9
20200330052537 71 107 0.0 0.0 0.00 0.00 0.00 85 1019.9
20200330052044 71 103 0.0 0.0 0.00 0.00 0.00 85 1020.0
20200330051723 71 103 0.0 0.0 0.00 0.00 0.00 84 1020.1
20200330051034 71 104 0.0 1.0 0.00 0.00 0.00 84 1020.0
20200330050531 71 99 0.0 3.0 0.00 0.00 0.00 84 1020.2
20200330050140 71 79 0.0 3.0 0.00 0.00 0.00 83 1020.3
20200330045535 71 107 0.0 3.0 0.00 0.00 0.00 83 1020.3
20200330045058 71 108 0.0 2.0 0.00 0.00 0.00 83 1020.3
20200330044616 71 94 0.0 3.0 0.00 0.00 0.00 83 1020.2
20200330043530 71 89 0.0 3.0 0.00 0.00 0.00 83 1020.3
20200330043038 71 115 0.0 2.0 0.00 0.00 0.00 83 1020.3
20200330042529 71 117 0.0 2.0 0.00 0.00 0.00 83 1020.5
20200330042029 71 97 0.0 1.0 0.00 0.00 0.00 83 1020.5
20200330041625 71 115 0.0 0.0 0.00 0.00 0.00 83 1020.5
20200330041029 71 87 0.0 2.0 0.00 0.00 0.00 82 1020.5
20200330040528 72 87 0.0 2.0 0.00 0.00 0.00 82 1020.5
20200330040040 72 86 0.0 2.0 0.00 0.00 0.00 82 1020.5
20200330035529 72 66 0.0 2.0 0.00 0.00 0.00 81 1020.6
20200330035028 72 98 0.0 1.0 0.00 0.00 0.00 81 1020.7
20200330034608 72 90 0.0 0.0 0.00 0.00 0.00 81 1020.6
20200330033534 72 92 0.0 0.0 0.00 0.00 0.00 80 1020.6
20200330033034 73 92 0.0 0.0 0.00 0.00 0.00 80 1020.6
20200330032528 73 91 0.0 2.0 0.00 0.00 0.00 80 1020.5
20200330032029 73 87 0.0 4.0 0.00 0.00 0.00 79 1020.3
20200330031549 73 69 0.0 4.0 0.00 0.00 0.00 79 1020.2
20200330031027 73 53 1.0 4.0 0.00 0.00 0.00 79 1020.1
20200330030533 73 55 2.0 5.0 0.00 0.00 0.00 79 1020.0
20200330030127 73 58 2.0 5.0 0.00 0.00 0.00 79 1020.1
20200330025528 73 41 2.0 6.0 0.00 0.00 0.00 80 1020.1
20200330025027 73 56 1.0 6.0 0.00 0.00 0.00 80 1020.2
20200330024539 73 75 1.0 5.0 0.00 0.00 0.00 81 1020.1
20200330023525 71 46 2.0 5.0 0.00 0.00 0.00 85 1020.3
20200330023055 69 42 2.0 3.0 0.00 0.00 0.00 90 1020.2
20200330022526 68 80 0.0 0.0 0.00 0.00 0.00 90 1020.3
20200330022026 68 80 0.0 0.0 0.00 0.00 0.00 90 1020.3
20200330021531 68 69 0.0 0.0 0.00 0.00 0.00 90 1020.2
20200330021029 68 69 0.0 0.0 0.00 0.00 0.00 89 1020.1
20200330020525 69 69 0.0 0.0 0.00 0.00 0.00 89 1020.0
20200330020110 69 68 0.0 0.0 0.00 0.00 0.00 89 1020.0
20200330015532 69 69 0.0 0.0 0.00 0.00 0.00 90 1019.9
20200330015025 69 69 0.0 0.0 0.00 0.00 0.00 90 1019.8
20200330014532 69 69 0.0 0.0 0.00 0.00 0.00 89 1019.8
20200330013524 69 69 0.0 0.0 0.00 0.00 0.00 88 1019.7
20200330013045 69 69 0.0 0.0 0.00 0.00 0.00 88 1019.5
20200330012524 70 69 0.0 0.0 0.00 0.00 0.00 88 1019.4
20200330012024 70 69 0.0 0.0 0.00 0.00 0.00 89 1019.4
20200330011619 70 69 0.0 0.0 0.00 0.00 0.00 89 1019.4
20200330011030 70 62 0.0 0.0 0.00 0.00 0.00 88 1019.2
20200330010530 70 62 0.0 0.0 0.00 0.00 0.00 86 1019.1
20200330010052 70 62 0.0 0.0 0.00 0.00 0.00 86 1019.0
20200330005524 71 61 0.0 0.0 0.00 0.00 0.00 86 1019.0
20200330005024 71 61 0.0 0.0 0.00 0.00 0.00 85 1019.0
20200330004547 71 61 0.0 0.0 0.00 0.00 0.00 83 1019.0
20200330003524 72 61 0.0 0.0 0.00 0.00 0.00 83 1019.0
20200330003045 73 61 0.0 0.0 0.00 0.00 0.00 82 1018.9
20200330002524 73 61 0.0 0.0 0.00 0.00 0.00 81 1018.9
20200330002032 74 61 0.0 0.0 0.00 0.00 0.00 80 1018.9
20200330001549 74 61 0.0 0.0 0.00 0.00 0.00 80 1018.7
20200330001029 74 61 0.0 0.0 0.00 0.00 0.00 79 1018.7
20200330000522 75 61 0.0 0.0 0.00 0.00 0.00 79 1018.7
20200330000113 76 61 0.0 0.0 0.00 0.00 0.00 78 1018.8
20200329235522 77 61 0.0 0.0 0.00 0.00 0.00 77 1018.5
20200329235029 78 61 0.0 0.0 0.00 0.00 0.00 75 1018.6
20200329234535 79 60 0.0 0.0 0.00 0.00 0.00 74 1018.6
20200329233543 80 60 0.0 0.0 0.00 0.00 0.00 71 1018.7
20200329233120 81 60 0.0 0.0 0.00 0.00 0.00 70 1018.5
20200329232531 82 60 0.0 0.0 0.00 0.00 0.00 67 1018.6
20200329232022 83 60 0.0 1.0 0.00 0.00 0.00 65 1018.6
20200329231537 84 60 0.0 2.0 0.00 0.00 0.00 62 1018.7
20200329231022 84 60 1.0 2.0 0.00 0.00 0.00 61 1018.7
20200329230522 85 60 0.0 2.0 0.00 0.00 0.00 60 1018.7
20200329230030 85 59 0.0 3.0 0.00 0.00 0.00 60 1018.7
20200329225535 85 59 0.0 3.0 0.00 0.00 0.00 58 1018.7
20200329225022 85 54 2.0 3.0 0.00 0.00 0.00 58 1018.8
20200329224548 85 84 0.0 3.0 0.00 0.00 0.00 58 1018.7
20200329223525 85 46 3.0 8.0 0.00 0.00 0.00 58 1018.6
20200329223117 85 46 1.0 5.0 0.00 0.00 0.00 59 1018.4
20200329222532 85 58 2.0 5.0 0.00 0.00 0.00 58 1018.3
20200329222028 86 51 2.0 8.0 0.00 0.00 0.00 58 1018.4
20200329221539 86 76 1.0 8.0 0.00 0.00 0.00 57 1018.4
20200329221026 86 18 4.0 6.0 0.00 0.00 0.00 58 1018.4
20200329220520 86 44 3.0 6.0 0.00 0.00 0.00 56 1018.4
20200329220033 86 53 1.0 7.0 0.00 0.00 0.00 57 1018.3
20200329215520 86 28 4.0 9.0 0.00 0.00 0.00 56 1018.3
20200329215020 86 23 5.0 9.0 0.00 0.00 0.00 56 1018.3
20200329214546 87 50 4.0 8.0 0.00 0.00 0.00 56 1018.4
20200329213520 87 42 3.0 7.0 0.00 0.00 0.00 58 1018.3
20200329213053 86 48 4.0 7.0 0.00 0.00 0.00 57 1018.4
20200329212527 86 31 4.0 9.0 0.00 0.00 0.00 56 1018.4
20200329212028 87 36 4.0 9.0 0.00 0.00 0.00 56 1018.5
20200329211533 87 41 3.0 8.0 0.00 0.00 0.00 56 1018.4
20200329211019 87 37 2.0 8.0 0.00 0.00 0.00 55 1018.5
20200329210551 87 37 4.0 6.0 0.00 0.00 0.00 56 1018.5
20200329210025 87 76 1.0 6.0 0.00 0.00 0.00 56 1018.5
20200329205519 87 123 0.0 6.0 0.00 0.00 0.00 55 1018.5
20200329205027 87 73 2.0 6.0 0.00 0.00 0.00 56 1018.6
20200329204520 87 42 4.0 8.0 0.00 0.00 0.00 55 1018.6
20200329203523 88 42 2.0 8.0 0.00 0.00 0.00 55 1018.5
20200329203049 88 30 2.0 9.0 0.00 0.00 0.00 56 1018.7
20200329202534 87 27 4.0 9.0 0.00 0.00 0.00 55 1018.8
20200329202019 87 47 5.0 9.0 0.00 0.00 0.00 56 1018.7
20200329201546 87 37 3.0 7.0 0.00 0.00 0.00 55 1018.6
20200329201015 87 38 3.0 7.0 0.00 0.00 0.00 56 1018.6
20200329200520 88 82 3.0 7.0 0.00 0.00 0.00 55 1018.8
20200329200031 87 63 1.0 6.0 0.00 0.00 0.00 57 1018.9
20200329195514 87 60 3.0 10.0 0.00 0.00 0.00 56 1018.9
20200329195022 87 46 7.0 10.0 0.00 0.00 0.00 56 1018.9
20200329194543 87 18 4.0 9.0 0.00 0.00 0.00 58 1018.8
20200329193522 87 39 6.0 10.0 0.00 0.00 0.00 57 1018.9
20200329193018 87 51 6.0 10.0 0.00 0.00 0.00 56 1019.2
20200329192515 87 43 4.0 10.0 0.00 0.00 0.00 55 1019.1
20200329192015 87 15 4.0 11.0 0.00 0.00 0.00 56 1019.1
20200329191528 87 89 4.0 11.0 0.00 0.00 0.00 56 1019.1
20200329191014 87 37 5.0 11.0 0.00 0.00 0.00 57 1019.1
20200329190518 88 12 4.0 8.0 0.00 0.00 0.00 57 1019.2
20200329190058 87 83 2.0 8.0 0.00 0.00 0.00 59 1019.2
20200329185514 87 38 4.0 9.0 0.00 0.00 0.00 60 1019.1
20200329185019 86 21 2.0 8.0 0.00 0.00 0.00 60 1019.2
20200329184541 86 89 3.0 8.0 0.00 0.00 0.00 60 1019.3
20200329183513 86 32 3.0 9.0 0.00 0.00 0.00 63 1019.5
20200329183013 86 64 4.0 13.0 0.00 0.00 0.00 59 1019.6
20200329182543 86 27 6.0 13.0 0.00 0.00 0.00 58 1019.6
20200329182017 86 27 2.0 8.0 0.00 0.00 0.00 60 1019.6
20200329181522 87 20 4.0 12.0 0.00 0.00 0.00 59 1019.7
20200329181011 87 43 7.0 12.0 0.00 0.00 0.00 58 1019.8
20200329180511 87 24 2.0 10.0 0.00 0.00 0.00 60 1019.9
20200329180010 87 46 6.0 10.0 0.00 0.00 0.00 59 1020.0
20200329175514 86 44 4.0 7.0 0.00 0.00 0.00 62 1020.2
20200329175013 86 3 4.0 8.0 0.00 0.00 0.00 63 1020.1
20200329174532 86 44 3.0 8.0 0.00 0.00 0.00 60 1020.1
20200329173508 85 332 4.0 9.0 0.00 0.00 0.00 65 1020.4
20200329173006 84 105 4.0 9.0 0.00 0.00 0.00 65 1020.5
20200329172510 84 40 4.0 9.0 0.00 0.00 0.00 66 1020.7
20200329172003 83 44 5.0 11.0 0.00 0.00 0.00 64 1020.7
20200329171503 84 34 7.0 11.0 0.00 0.00 0.00 65 1020.7
20200329171004 83 37 5.0 10.0 0.00 0.00 0.00 66 1020.8
20200329170601 83 39 4.0 7.0 0.00 0.00 0.00 68 1020.9
20200329170343 83 67 4.0 9.0 0.00 0.00 0.00 67 1021.0
20200329165559 83 37 6.0 8.0 0.00 0.00 0.00 68 1021.0
20200329165111 83 349 5.0 8.0 0.00 0.00 0.00 69 1020.8
20200329164641 82 38 3.0 10.0 0.00 0.00 0.00 71 1021.0
20200329164057 81 13 6.0 10.0 0.00 0.00 0.00 71 1021.3
20200329163603 81 18 6.0 10.0 0.00 0.00 0.00 71 1021.4
20200329163142 79 44 2.0 6.0 0.00 0.00 0.00 73 1021.5
20200329162554 78 12 1.0 8.0 0.00 0.00 0.00 73 1021.4
20200329162057 78 84 1.0 8.0 0.00 0.00 0.00 74 1021.5
20200329161729 78 121 1.0 6.0 0.00 0.00 0.00 74 1021.6
20200329161054 79 95 1.0 5.0 0.00 0.00 0.00 73 1021.8
20200329160609 79 91 1.0 5.0 0.00 0.00 0.00 74 1021.9
20200329160110 79 126 1.0 4.0 0.00 0.00 0.00 74 1021.9
20200329155553 78 104 1.0 4.0 0.00 0.00 0.00 74 1021.9
20200329155051 78 93 1.0 4.0 0.00 0.00 0.00 74 1022.0
20200329154649 78 83 1.0 4.0 0.00 0.00 0.00 76 1021.9
20200329154055 77 89 1.0 5.0 0.00 0.00 0.00 77 1022.2
20200329153549 77 92 1.0 5.0 0.00 0.00 0.00 77 1022.2
20200329153214 77 40 2.0 4.0 0.00 0.00 0.00 77 1022.1
20200329152548 77 58 1.0 4.0 0.00 0.00 0.00 77 1022.1
20200329152047 77 53 2.0 6.0 0.00 0.00 0.00 77 1022.2
20200329151707 77 58 2.0 6.0 0.00 0.00 0.00 78 1022.1
20200329151058 76 68 1.0 5.0 0.00 0.00 0.00 78 1022.0
20200329150545 76 62 3.0 5.0 0.00 0.00 0.00 78 1022.1
20200329150146 76 30 2.0 5.0 0.00 0.00 0.00 80 1022.1
20200329145553 76 37 1.0 6.0 0.00 0.00 0.00 79 1022.0
20200329145041 75 50 3.0 7.0 0.00 0.00 0.00 80 1022.0
20200329144556 75 34 4.0 7.0 0.00 0.00 0.00 80 1021.9
20200329144045 74 85 0.0 4.0 0.00 0.00 0.00 82 1021.9
20200329143542 74 96 0.0 4.0 0.00 0.00 0.00 82 1021.9
20200329143135 74 38 2.0 4.0 0.00 0.00 0.00 84 1021.8
20200329142536 73 62 1.0 4.0 0.00 0.00 0.00 87 1021.9
20200329142035 72 33 1.0 4.0 0.00 0.00 0.00 88 1021.8
20200329141553 71 34 1.0 4.0 0.00 0.00 0.00 90 1022.0
20200329141044 70 44 0.0 3.0 0.00 0.00 0.00 92 1022.0
20200329140530 70 94 0.0 3.0 0.00 0.00 0.00 93 1021.9
20200329140054 69 47 1.0 3.0 0.00 0.00 0.00 93 1021.9
20200329135530 69 103 0.0 0.0 0.00 0.00 0.00 94 1022.0
20200329135029 69 103 0.0 0.0 0.00 0.00 0.00 95 1022.1
20200329134627 68 101 0.0 2.0 0.00 0.00 0.00 95 1022.1
20200329134028 68 106 0.0 1.0 0.00 0.00 0.00 95 1022.0
20200329133535 67 106 0.0 1.0 0.00 0.00 0.00 95 1022.0
20200329133030 67 106 0.0 1.0 0.00 0.00 0.00 95 1022.0
20200329132528 67 96 0.0 2.0 0.00 0.00 0.00 95 1022.1
20200329132033 67 96 0.0 2.0 0.00 0.00 0.00 95 1022.1
20200329131628 67 110 0.0 4.0 0.00 0.00 0.00 95 1022.2
20200329131038 66 110 0.0 4.0 0.00 0.00 0.00 95 1022.2
20200329130527 66 115 0.0 4.0 0.00 0.00 0.00 95 1022.2
20200329130039 66 122 0.0 5.0 0.00 0.00 0.00 96 1022.1
20200329125528 66 110 1.0 9.0 0.00 0.00 0.00 96 1022.1
20200329125052 66 103 4.0 8.0 0.00 0.00 0.00 96 1022.0
20200329124533 66 103 0.0 7.0 0.00 0.00 0.00 96 1021.7
20200329124025 66 99 1.0 4.0 0.00 0.00 0.00 96 1021.1
20200329123536 66 100 1.0 4.0 0.00 0.00 0.00 96 1021.1
20200329123049 66 88 0.0 6.0 0.00 0.00 0.00 96 1021.0
20200329122524 66 83 2.0 6.0 0.00 0.00 0.00 96 1020.9
20200329122023 66 58 2.0 5.0 0.00 0.00 0.00 96 1020.6
20200329121543 66 77 0.0 6.0 0.00 0.00 0.00 96 1020.6
20200329121038 65 6 2.0 6.0 0.00 0.00 0.00 96 1020.5
20200329120521 65 28 3.0 6.0 0.00 0.00 0.00 96 1020.3
20200329120101 65 31 3.0 7.0 0.00 0.00 0.00 96 1020.2
20200329115520 65 31 3.0 6.0 0.00 0.00 0.00 96 1020.2
20200329115025 65 56 2.0 5.0 0.00 0.00 0.00 96 1020.1
20200329114536 65 46 2.0 5.0 0.00 0.00 0.00 96 1020.1
20200329114021 65 58 1.0 4.0 0.00 0.00 0.00 96 1019.9
20200329113519 65 46 1.0 4.0 0.00 0.00 0.00 96 1019.9
20200329113023 65 39 2.0 4.0 0.00 0.00 0.00 96 1019.8
20200329112530 65 41 2.0 4.0 0.00 0.00 0.00 96 1019.8
20200329112023 64 39 2.0 4.0 0.00 0.00 0.00 96 1019.7
20200329111529 64 52 2.0 4.0 0.00 0.00 0.00 96 1019.7
20200329111017 64 50 1.0 3.0 0.00 0.00 0.00 96 1019.5
20200329110521 64 69 1.0 3.0 0.00 0.00 0.00 96 1019.5
20200329110034 64 63 0.0 3.0 0.00 0.00 0.00 96 1019.4
20200329105515 64 60 1.0 3.0 0.00 0.00 0.00 96 1019.3
20200329105017 64 53 1.0 3.0 0.00 0.00 0.00 96 1019.2
20200329104537 64 47 1.0 3.0 0.00 0.00 0.00 96 1019.1
20200329104013 64 53 1.0 4.0 0.00 0.00 0.00 96 1019.0
20200329103512 64 59 1.0 4.0 0.00 0.00 0.00 96 1018.9
20200329103012 65 44 2.0 4.0 0.00 0.00 0.00 96 1018.8
20200329102523 64 53 1.0 4.0 0.00 0.00 0.00 96 1018.7
20200329102010 64 55 2.0 4.0 0.00 0.00 0.00 97 1018.6
20200329101514 64 29 2.0 4.0 0.00 0.00 0.00 97 1018.6
20200329101011 64 35 2.0 4.0 0.00 0.00 0.00 97 1018.6
20200329100519 64 39 1.0 3.0 0.00 0.00 0.00 97 1018.5
20200329100035 63 109 0.0 0.0 0.00 0.00 0.00 97 1018.4
20200329095515 63 109 0.0 0.0 0.00 0.00 0.00 97 1018.2
20200329095006 62 110 0.0 0.0 0.00 0.00 0.00 96 1018.2
20200329094514 62 110 0.0 0.0 0.00 0.00 0.00 96 1018.1
20200329094006 61 110 0.0 0.0 0.00 0.00 0.00 95 1018.0
20200329093505 61 110 0.0 0.0 0.00 0.00 0.00 95 1018.0
20200329093020 61 110 0.0 0.0 0.00 0.00 0.00 96 1017.9
20200329092508 61 110 0.0 0.0 0.00 0.00 0.00 96 1017.8
20200329092005 61 110 0.0 0.0 0.00 0.00 0.00 96 1017.9
20200329091011 61 110 0.0 0.0 0.00 0.00 0.00 95 1017.7
20200329090510 61 110 0.0 0.0 0.00 0.00 0.00 94 1017.6
20200329090014 61 110 0.0 0.0 0.00 0.00 0.00 95 1017.6
20200329085503 61 109 0.0 0.0 0.00 0.00 0.00 94 1017.5
20200329085015 61 110 0.0 0.0 0.00 0.00 0.00 94 1017.4
20200329084501 62 110 0.0 0.0 0.00 0.00 0.00 94 1017.4
20200329084007 62 110 0.0 0.0 0.00 0.00 0.00 95 1017.4
20200329083504 62 110 0.0 0.0 0.00 0.00 0.00 95 1017.5
20200329083002 62 110 0.0 0.0 0.00 0.00 0.00 94 1017.4
20200329082502 62 110 0.0 0.0 0.00 0.00 0.00 94 1017.4
20200329082100 62 110 0.0 0.0 0.00 0.00 0.00 94 1017.4
20200329082005 62 110 0.0 0.0 0.00 0.00 0.00 94 1017.4
20200329081657 62 110 0.0 0.0 0.00 0.00 0.00 94 1017.4
20200329081110 62 110 0.0 0.0 0.00 0.00 0.00 94 1017.4
20200329080603 63 110 0.0 0.0 0.00 0.00 0.00 93 1017.4
20200329075603 63 110 0.0 0.0 0.00 0.00 0.00 93 1017.6
20200329075056 63 110 0.0 0.0 0.00 0.00 0.00 93 1017.6
20200329074705 63 110 0.0 0.0 0.00 0.00 0.00 93 1017.5